Wind_Speed
4 4 4 9 7 0 16 15 7 5 18 21 14 13 20 22 25 16 19 27 33 28 18 16 25 14 18 18 16 18 19 26 25 29 29 29 30 34 37 39 42 47 46 43
3 8 8 7 5 0 7 19 20 11 16 7 9 13 23 26 8 9 13 16 12 12 14 13 8 13 17 17 20 22 24 27 33 31 31 32 33 39 42 40 44 42 37 37
7 5 5 7 2 4 1 4 5 9 18 12 9 10 17 25 3 15 16 30 26 15 14 11 10 8 13 17 21 26 29 30 28 30 29 32 34 41 42 33 39 46 38 36
6 3 2 5 4 2 9 6 4 3 9 5 19 23 21 26 17 14 12 30 28 25 22 19 13 15 17 19 23 29 33 36 34 30 30 31 36 41 43 39 32 44 33 36
4 4 4 8 7 4 6 2 8 2 3 4 6 16 20 27 20 23 24 29 33 25 26 27 24 26 25 24 27 28 29 30 34 38 39 40 44 41 38 32 32 25 25 29
4 3 5 6 7 5 4 3 5 3 6 9 16 9 15 20 23 32 28 22 33 25 24 32 30 30 34 38 38 38 39 40 39 39 33 37 32 46 50 56 38 47 46 47
1 9 5 5 9 11 8 12 5 6 9 7 4 17 19 24 19 25 31 30 31 38 39 30 29 30 35 39 42 43 44 43 44 45 47 47 50 54 54 53 52 52 52 55
4 12 13 7 7 8 8 11 12 7 7 10 11 18 19 24 38 31 29 30 40 45 45 40 39 38 36 38 41 44 45 47 48 48 49 49 49 52 55 53 52 54 57 58
11 9 11 8 8 7 11 11 10 8 5 4 7 18 27 30 38 30 31 44 48 52 52 48 47 40 37 38 42 44 46 49 51 52 53 54 55 53 55 57 59 60 61 62
10 12 13 7 10 8 9 13 14 15 13 11 16 24 31 31 33 38 44 47 50 51 51 52 52 45 38 39 37 39 43 47 50 52 54 55 57 58 58 60 60 62 63 64
8 10 12 11 14 13 15 22 19 15 16 20 21 25 29 35 41 44 46 47 48 49 56 57 52 50 44 38 38 38 38 40 44 48 51 53 54 55 56 56 56 56 56 54
10 10 7 6 19 18 17 20 19 17 14 16 19 20 32 38 42 44 46 50 52 50 49 49 49 44 41 38 38 40 38 39 41 43 45 48 50 51 53 53 52 50 50 51
11 9 7 9 18 18 22 23 27 28 25 22 23 24 35 42 41 46 49 48 45 41 46 46 44 41 39 40 41 43 43 44 45 46 49 50 50 51 51 52 52 51 47 46
13 13 11 11 16 21 22 23 26 26 28 29 27 28 38 43 45 43 45 47 47 48 50 52 52 51 49 50 49 47 45 46 46 49 48 50 52 52 52 50 52 51 47 45
14 14 15 15 13 16 18 21 22 26 31 27 31 32 34 33 33 38 41 43 43 45 48 49 51 53 54 54 54 54 54 53 52 50 51 49 48 48 50 51 51 51 50 45
13 13 15 16 17 18 21 22 26 29 31 29 29 35 38 38 37 40 42 43 44 45 44 47 49 51 52 54 54 55 58 59 58 53 50 48 45 46 46 46 47 48 50 42
11 13 15 16 16 18 24 25 28 26 26 26 27 29 34 36 39 45 45 46 47 49 49 51 53 54 56 58 58 56 54 49 49 52 48 45 41 39 36 38 45 42 38 35
12 13 15 16 18 23 27 28 16 23 25 26 27 32 36 40 40 47 50 51 52 53 53 54 56 58 58 54 50 40 42 44 42 37 35 37 40 37 34 34 33 38 37 32
13 12 14 17 21 29 29 18 19 23 29 25 30 33 38 41 43 45 47 50 53 54 55 57 60 59 55 48 37 39 45 36 35 37 37 37 36 34 32 28 27 26 27 30
11 12 14 19 23 25 23 18 19 23 31 35 37 41 44 45 47 48 50 48 47 48 51 52 51 47 38 38 37 39 35 33 37 35 35 35 38 30 25 22 17 19 22 25
13 15 17 22 27 29 20 20 24 28 33 37 41 43 46 48 49 51 53 53 54 55 54 50 42 38 37 38 36 32 31 32 32 35 40 35 33 25 25 23 24 20 21 20
18 18 21 25 28 29 26 23 24 29 35 39 42 45 47 48 50 53 55 54 54 51 44 38 39 39 41 40 33 28 27 29 33 39 28 26 22 22 19 15 13 15 8 10
18 17 23 27 30 30 30 26 28 32 36 39 43 46 47 49 53 56 58 58 50 40 35 36 41 40 37 31 25 23 24 27 35 27 24 17 18 13 12 16 15 17 17 15
22 21 21 23 26 30 30 30 32 37 40 44 45 46 49 54 58 61 61 46 41 38 39 36 37 28 30 23 18 20 22 28 26 17 20 22 18 17 15 15 16 17 18 19
24 26 28 28 27 31 29 31 36 40 44 46 48 50 53 57 61 57 49 46 40 41 35 33 30 30 30 19 15 16 21 23 23 19 17 17 17 17 18 18 19 20 21 22
20 25 27 27 27 27 30 35 39 43 45 47 49 52 56 60 57 51 47 45 44 42 41 37 32 27 21 12 14 13 19 15 12 18 18 19 22 22 23 23 23 23 21 20
Wind_Direction
290 75 55 27 3 126 184 176 202 211 262 282 218 218 247 252 260 275 275 272 278 291 331 307 282 264 274 297 293 304 307 310 308 299 286 285 288 287 287 292 293 294 287 282
59 64 39 15 353 247 216 215 239 207 242 274 239 254 271 260 152 47 4 350 337 355 1 345 334 265 272 283 289 294 301 305 306 295 291 290 289 285 286 290 290 287 314 316
52 58 22 355 16 70 21 244 275 260 238 268 298 282 285 311 224 69 328 347 354 343 348 325 329 287 269 272 279 288 297 301 304 302 297 295 289 288 286 280 289 293 310 306
72 46 32 290 354 325 10 5 341 198 146 64 294 272 299 320 6 12 327 330 333 349 325 321 309 301 297 297 287 289 293 298 303 299 297 294 294 293 303 288 295 285 291 312
49 55 9 4 8 339 352 70 42 186 166 306 281 254 301 318 313 301 313 320 328 332 327 322 313 303 296 286 290 294 296 298 295 292 290 292 294 293 286 285 288 307 294 301
51 352 360 8 358 294 272 194 247 322 164 262 296 273 299 300 290 295 314 311 312 322 332 322 318 311 306 301 296 292 288 290 291 294 298 294 293 297 301 309 301 311 309 303
102 329 56 13 349 353 1 315 323 336 232 301 258 262 282 293 227 273 300 302 313 311 309 307 302 302 300 297 295 294 292 290 287 287 287 288 291 292 294 299 300 300 299 300
151 259 310 350 332 317 302 320 351 354 320 342 331 279 283 285 303 295 296 304 306 306 312 311 305 301 297 296 290 288 287 287 286 285 286 286 287 290 293 294 294 294 296 297
193 226 285 331 313 300 301 305 299 294 241 277 305 277 287 305 303 281 306 308 310 309 311 309 301 300 299 293 291 290 289 287 286 285 286 287 287 286 286 289 290 291 292 293
258 252 277 320 326 303 297 310 318 314 310 265 275 283 290 300 297 308 300 303 305 306 310 309 311 315 312 301 295 289 286 285 284 284 283 283 283 283 283 283 284 286 287 288
271 265 275 294 307 299 305 305 318 315 295 299 303 296 295 293 293 294 300 302 301 305 309 309 312 313 313 310 304 299 295 291 288 286 286 286 286 286 285 285 285 285 285 285
261 267 280 266 284 299 296 312 322 316 307 306 303 293 283 287 292 294 296 302 306 307 306 306 310 313 313 312 306 300 297 294 293 291 288 286 286 285 285 285 284 283 285 284
273 279 275 266 275 304 312 318 315 315 312 310 309 292 292 296 292 296 305 304 307 307 306 306 307 309 306 303 300 300 301 299 298 295 292 291 288 285 285 284 284 287 284 283
274 283 293 292 293 311 313 301 298 304 307 314 315 295 298 300 306 311 309 311 313 313 314 313 312 311 310 310 310 309 308 306 302 298 297 293 289 287 288 286 284 283 282 282
276 287 294 297 295 286 294 294 304 300 301 305 303 295 296 305 307 301 305 308 309 307 306 309 308 309 312 312 312 313 311 310 308 306 300 296 293 290 288 286 283 283 285 283
281 290 293 295 298 301 299 313 310 301 302 307 301 302 309 315 313 309 309 307 307 308 305 305 308 306 309 310 312 314 313 309 310 308 307 304 297 288 282 280 280 279 282 291
286 291 294 300 304 303 301 314 319 306 304 306 309 308 307 314 316 313 313 313 312 310 312 312 312 314 314 315 318 313 312 314 312 311 310 304 300 299 292 280 275 272 272 279
285 296 300 305 309 310 314 332 315 303 302 311 317 311 315 317 316 312 315 314 312 312 312 312 313 316 317 316 312 318 317 317 320 323 319 318 313 306 296 289 282 273 268 264
289 301 309 319 325 316 328 333 316 305 307 319 314 317 316 316 315 312 311 312 313 314 315 317 317 316 315 316 326 323 321 319 318 323 320 318 316 316 309 310 296 280 274 266
289 302 307 315 326 324 335 329 318 316 318 320 319 318 319 319 318 316 313 313 312 314 317 315 316 319 319 326 328 326 323 325 335 323 330 327 321 318 311 313 311 297 286 282
297 304 317 322 327 330 337 332 322 322 320 316 318 317 318 319 318 315 314 315 316 320 319 321 322 325 328 328 329 325 328 329 336 333 332 327 329 333 335 306 302 320 305 297
307 315 322 326 325 327 329 326 322 320 318 318 319 318 319 317 315 314 314 317 323 320 323 323 322 323 321 326 329 324 326 331 336 334 344 335 352 349 356 20 3 1 349 23
298 316 319 326 324 325 320 321 317 317 318 318 319 320 318 316 316 316 319 324 323 326 324 320 316 319 324 333 326 329 334 339 342 341 353 355 357 9 17 17 8 1 3 7
303 316 318 321 322 310 317 319 317 318 319 320 321 320 318 319 319 321 324 328 325 321 317 320 319 331 336 336 331 337 336 345 346 350 3 18 35 26 17 9 3 359 354 351
308 313 317 325 324 315 317 317 319 320 322 325 324 321 321 322 321 323 325 326 322 322 326 321 320 322 328 332 331 337 343 349 338 345 10 16 27 22 19 9 2 359 355 349
302 307 314 320 320 315 316 320 321 323 324 323 321 322 323 322 321 328 328 326 323 320 317 318 316 313 327 316 330 338 352 2 22 25 38 26 16 10 8 8 1 355 360 2
Height
5893 5893 5892 5891 5890 5891 5893 5896 5896 5898 5896 5892 5889 5890 5883 5884 5882 5882 5877 5877 5876 5880 5871 5869 5872 5870 5870 5864 5865 5863 5862 5858 5858 5856 5852 5851 5847 5843 5838 5836 5832 5827 5824 5820
5892 5891 5891 5891 5891 5891 5893 5894 5893 5895 5892 5889 5888 5887 5879 5882 5881 5873 5868 5872 5874 5872 5872 5869 5865 5864 5866 5863 5861 5861 5859 5857 5851 5849 5846 5844 5842 5835 5831 5829 5821 5805 5801 5808
5889 5891 5891 5891 5891 5889 5890 5890 5890 5890 5891 5887 5887 5887 5883 5878 5869 5868 5871 5867 5870 5871 5870 5867 5867 5867 5864 5863 5862 5860 5855 5853 5849 5843 5839 5837 5834 5830 5821 5811 5811 5809 5803 5800
5890 5891 5891 5891 5889 5889 5889 5889 5888 5887 5889 5889 5885 5884 5884 5882 5871 5872 5873 5867 5868 5868 5865 5868 5868 5867 5864 5863 5859 5855 5850 5847 5844 5842 5837 5833 5827 5817 5816 5800 5801 5798 5799 5792
5891 5891 5891 5890 5889 5889 5890 5890 5888 5888 5887 5886 5885 5885 5884 5875 5875 5871 5873 5865 5862 5869 5865 5864 5863 5858 5856 5856 5852 5849 5845 5843 5838 5834 5829 5827 5820 5811 5808 5798 5797 5781 5788 5791
5890 5891 5890 5889 5889 5888 5888 5887 5886 5885 5885 5884 5884 5882 5880 5877 5870 5866 5868 5866 5861 5864 5866 5861 5858 5855 5849 5845 5843 5842 5839 5836 5831 5826 5822 5817 5811 5806 5797 5772 5791 5782 5782 5784
5888 5889 5889 5889 5888 5888 5885 5884 5884 5883 5882 5882 5880 5875 5873 5872 5867 5864 5863 5863 5858 5854 5856 5858 5856 5854 5847 5841 5835 5831 5828 5826 5823 5820 5816 5812 5808 5797 5792 5786 5780 5778 5777 5774
5886 5888 5887 5888 5888 5886 5885 5884 5883 5882 5882 5882 5880 5877 5875 5869 5864 5862 5858 5858 5853 5848 5845 5846 5846 5843 5840 5833 5827 5822 5818 5815 5811 5807 5803 5800 5797 5791 5784 5781 5776 5770 5765 5763
5886 5886 5887 5888 5886 5886 5884 5883 5882 5881 5881 5880 5879 5876 5870 5868 5859 5855 5856 5850 5846 5842 5838 5833 5829 5833 5830 5824 5818 5813 5808 5804 5800 5796 5792 5788 5784 5782 5777 5772 5767 5762 5757 5753
5887 5886 5885 5885 5883 5882 5881 5880 5881 5880 5879 5878 5874 5870 5865 5861 5858 5853 5850 5848 5843 5836 5830 5824 5817 5815 5817 5811 5808 5803 5798 5794 5789 5784 5780 5776 5771 5768 5765 5761 5757 5752 5747 5743
5886 5885 5885 5883 5881 5880 5879 5876 5877 5876 5875 5873 5871 5865 5861 5856 5852 5849 5846 5841 5837 5830 5822 5815 5810 5805 5804 5801 5794 5790 5786 5782 5778 5772 5767 5763 5758 5753 5750 5747 5743 5739 5735 5731
5881 5882 5882 5883 5877 5876 5876 5874 5873 5873 5873 5871 5867 5866 5855 5850 5845 5841 5838 5834 5831 5823 5816 5808 5803 5799 5793 5792 5786 5780 5776 5771 5766 5762 5756 5751 5746 5740 5736 5732 5729 5726 5723 5719
5878 5879 5880 5878 5875 5874 5872 5870 5867 5866 5865 5865 5863 5858 5849 5843 5843 5839 5833 5824 5822 5817 5807 5802 5797 5793 5786 5780 5775 5769 5764 5759 5755 5749 5743 5738 5733 5728 5723 5718 5714 5712 5710 5708
5873 5874 5876 5875 5871 5869 5869 5868 5865 5861 5858 5857 5856 5850 5842 5838 5832 5827 5819 5814 5810 5804 5797 5789 5783 5778 5773 5768 5762 5757 5753 5746 5741 5733 5729 5723 5716 5712 5709 5706 5701 5697 5694 5693
5870 5870 5871 5871 5870 5868 5867 5863 5861 5857 5853 5853 5848 5843 5839 5836 5831 5820 5815 5810 5805 5798 5792 5785 5777 5769 5763 5756 5750 5743 5737 5732 5726 5720 5713 5707 5702 5696 5693 5689 5686 5684 5680 5680
5865 5867 5867 5867 5865 5864 5860 5860 5857 5851 5847 5847 5842 5834 5828 5824 5821 5815 5809 5804 5798 5792 5785 5776 5769 5761 5753 5746 5740 5732 5724 5714 5708 5701 5694 5688 5684 5678 5676 5674 5670 5668 5667 5667
5863 5863 5863 5862 5860 5859 5856 5854 5851 5843 5841 5840 5836 5831 5824 5820 5814 5804 5799 5794 5787 5779 5773 5765 5756 5750 5743 5735 5728 5719 5711 5703 5695 5688 5681 5674 5668 5664 5661 5657 5656 5654 5653 5655
5859 5858 5858 5858 5856 5852 5851 5849 5845 5838 5837 5834 5830 5824 5819 5813 5808 5797 5791 5784 5776 5770 5762 5754 5746 5739 5732 5725 5716 5709 5701 5693 5685 5679 5672 5665 5659 5654 5649 5644 5642 5640 5640 5640
5856 5854 5853 5853 5851 5845 5845 5844 5840 5833 5830 5830 5825 5820 5814 5807 5801 5793 5784 5776 5767 5759 5751 5743 5735 5728 5720 5713 5709 5700 5692 5685 5680 5673 5664 5658 5650 5644 5638 5635 5632 5631 5632 5631
5854 5851 5851 5849 5847 5845 5842 5839 5835 5831 5824 5820 5816 5810 5804 5798 5790 5784 5775 5769 5762 5755 5747 5737 5727 5719 5712 5708 5702 5695 5687 5681 5673 5667 5660 5652 5643 5637 5633 5630 5627 5627 5626 5626
5850 5847 5846 5844 5840 5838 5837 5834 5829 5827 5824 5816 5810 5803 5796 5788 5780 5772 5763 5757 5750 5743 5734 5725 5717 5711 5706 5702 5696 5689 5682 5676 5669 5663 5655 5648 5640 5634 5629 5626 5625 5622 5621 5619
5846 5843 5842 5839 5836 5833 5831 5830 5828 5824 5816 5810 5803 5795 5788 5780 5771 5762 5755 5749 5742 5732 5724 5717 5710 5705 5699 5695 5689 5683 5677 5672 5666 5660 5653 5646 5641 5634 5629 5625 5624 5621 5619 5616
5844 5842 5839 5835 5831 5826 5825 5824 5821 5817 5811 5804 5796 5789 5780 5772 5763 5753 5745 5739 5729 5722 5716 5710 5703 5700 5694 5689 5684 5680 5675 5669 5664 5658 5653 5647 5641 5636 5633 5630 5626 5624 5621 5619
5837 5837 5836 5834 5830 5822 5820 5817 5813 5808 5802 5796 5789 5780 5771 5761 5751 5741 5733 5727 5721 5715 5709 5705 5698 5694 5690 5684 5680 5678 5673 5668 5663 5658 5654 5649 5643 5640 5636 5633 5629 5625 5621 5617
5833 5831 5828 5827 5825 5817 5816 5812 5807 5802 5795 5786 5778 5770 5761 5751 5740 5732 5725 5720 5714 5707 5703 5698 5694 5690 5686 5681 5678 5675 5672 5668 5663 5659 5656 5651 5647 5643 5639 5635 5630 5626 5621 5616
5830 5827 5824 5823 5820 5816 5811 5806 5800 5795 5787 5779 5770 5761 5752 5742 5731 5724 5717 5710 5704 5699 5694 5690 5686 5683 5682 5679 5677 5674 5672 5668 5664 5661 5657 5654 5648 5645 5639 5634 5630 5625 5619 5615